| time (UTC) | temp F | wind direction | speed knots | gust knots | rain 1hr in | rain 24hr in | rain mn in | humidity % | barometer mb |
| 20260507224415 | 56 | 113 | 0.9 | 1.7 | 0.00 | 0.00 | 0.00 | 83 | |
| 20260507223235 | 56 | 99 | 1.7 | 5.2 | 0.00 | 0.00 | 0.00 | 83 | |
| 20260507222015 | 56 | 90 | 0.0 | 0.9 | 0.00 | 0.00 | 0.00 | 82 | |
| 20260507220815 | 56 | 96 | 0.9 | 1.7 | 0.00 | 0.00 | 0.00 | 82 | |
| 20260507215633 | 57 | 90 | 0.0 | 0.9 | 0.00 | 0.00 | 0.00 | 82 | |
| 20260507214425 | 57 | 130 | 1.7 | 2.6 | 0.00 | 0.00 | 0.00 | 82 | |
| 20260507213215 | 57 | 136 | 0.9 | 2.6 | 0.00 | 0.00 | 0.00 | 81 | |
| 20260507212023 | 57 | 0.0 | 0.0 | 0.00 | 0.00 | 0.00 | 81 | ||
| 20260507210829 | 57 | 0.0 | 1.7 | 0.00 | 0.00 | 0.00 | 80 | ||
| 20260507205715 | 58 | 203 | 0.0 | 0.9 | 0.00 | 0.00 | 0.00 | 80 | |
| 20260507204428 | 58 | 211 | 1.7 | 2.6 | 0.00 | 0.00 | 0.00 | 79 | |
| 20260507203233 | 58 | 203 | 1.7 | 3.5 | 0.00 | 0.00 | 0.00 | 79 | |
| 20260507202045 | 58 | 198 | 1.7 | 1.7 | 0.00 | 0.00 | 0.00 | 79 | |
| 20260507200815 | 58 | 202 | 0.9 | 2.6 | 0.00 | 0.00 | 0.00 | 78 | |
| 20260507195623 | 58 | 197 | 0.9 | 2.6 | 0.00 | 0.00 | 0.00 | 78 | |
| 20260507194425 | 58 | 135 | 1.7 | 2.6 | 0.00 | 0.00 | 0.00 | 78 | |
| 20260507193221 | 58 | 90 | 0.0 | 1.7 | 0.00 | 0.00 | 0.00 | 77 | |
| 20260507192054 | 59 | 113 | 0.0 | 1.7 | 0.00 | 0.00 | 0.00 | 77 | |
| 20260507190834 | 60 | 135 | 1.7 | 2.6 | 0.00 | 0.00 | 0.00 | 76 | |
| 20260507185625 | 60 | 108 | 0.9 | 1.7 | 0.00 | 0.00 | 0.00 | 75 | |
| 20260507184417 | 60 | 135 | 0.9 | 1.7 | 0.00 | 0.00 | 0.00 | 74 | |
| 20260507183223 | 61 | 132 | 0.9 | 1.7 | 0.00 | 0.00 | 0.00 | 73 | |
| 20260507182015 | 62 | 0.0 | 0.9 | 0.00 | 0.00 | 0.00 | 72 | ||
| 20260507180835 | 62 | 0.0 | 0.9 | 0.00 | 0.00 | 0.00 | 71 | ||
| 20260507175647 | 63 | 199 | 1.7 | 2.6 | 0.00 | 0.00 | 0.00 | 68 | |
| 20260507174417 | 64 | 197 | 0.9 | 2.6 | 0.00 | 0.00 | 0.00 | 68 | |
| 20260507173225 | 64 | 216 | 1.7 | 3.5 | 0.00 | 0.00 | 0.00 | 68 | |
| 20260507172037 | 65 | 220 | 2.6 | 3.5 | 0.00 | 0.00 | 0.00 | 69 | |
| 20260507170834 | 66 | 217 | 2.6 | 3.5 | 0.00 | 0.00 | 0.00 | 65 | |
| 20260507165634 | 66 | 225 | 2.6 | 3.5 | 0.00 | 0.00 | 0.00 | 64 | |
| 20260507164421 | 67 | 235 | 2.6 | 5.2 | 0.00 | 0.00 | 0.00 | 62 | |
| 20260507163227 | 67 | 195 | 2.6 | 4.3 | 0.00 | 0.00 | 0.00 | 61 | |
| 20260507162039 | 67 | 222 | 3.5 | 5.2 | 0.00 | 0.00 | 0.00 | 60 | |
| 20260507160853 | 68 | 188 | 3.5 | 4.3 | 0.00 | 0.00 | 0.00 | 61 | |
| 20260507155734 | 68 | 199 | 3.5 | 5.2 | 0.00 | 0.00 | 0.00 | 59 | |
| 20260507154443 | 69 | 181 | 3.5 | 6.1 | 0.00 | 0.00 | 0.00 | 59 | |
| 20260507153215 | 69 | 240 | 3.5 | 6.1 | 0.00 | 0.00 | 0.00 | 58 | |
| 20260507152018 | 70 | 223 | 3.5 | 7.0 | 0.00 | 0.00 | 0.00 | 56 | |
| 20260507150907 | 70 | 227 | 2.6 | 5.2 | 0.00 | 0.00 | 0.00 | 58 | |
| 20260507145627 | 70 | 227 | 3.5 | 5.2 | 0.00 | 0.00 | 0.00 | 56 | |
| 20260507144425 | 71 | 235 | 3.5 | 7.8 | 0.00 | 0.00 | 0.00 | 58 | |
| 20260507143217 | 71 | 236 | 4.3 | 9.6 | 0.00 | 0.00 | 0.00 | 57 | |
| 20260507142034 | 71 | 229 | 5.2 | 8.7 | 0.00 | 0.00 | 0.00 | 55 | |
| 20260507140829 | 71 | 245 | 1.7 | 5.2 | 0.00 | 0.00 | 0.00 | 60 | |
| 20260507135621 | 72 | 219 | 3.5 | 9.6 | 0.00 | 0.00 | 0.00 | 59 | |
| 20260507134433 | 72 | 194 | 3.5 | 6.1 | 0.00 | 0.00 | 0.00 | 60 | |
| 20260507133219 | 71 | 242 | 3.5 | 7.0 | 0.00 | 0.00 | 0.00 | 62 | |
| 20260507132025 | 70 | 217 | 4.3 | 5.2 | 0.00 | 0.00 | 0.00 | 62 | |
| 20260507130831 | 70 | 231 | 5.2 | 8.7 | 0.00 | 0.00 | 0.00 | 61 | |
| 20260507125619 | 71 | 204 | 4.3 | 7.0 | 0.00 | 0.00 | 0.00 | 64 | |
| 20260507124429 | 70 | 235 | 5.2 | 7.8 | 0.00 | 0.00 | 0.00 | 64 | |
| 20260507123221 | 70 | 191 | 4.3 | 6.1 | 0.00 | 0.00 | 0.00 | 66 | |
| 20260507122027 | 70 | 218 | 4.3 | 9.6 | 0.00 | 0.00 | 0.00 | 67 | |
| 20260507120819 | 69 | 191 | 5.2 | 7.0 | 0.00 | 0.00 | 0.00 | 69 | |
| 20260507115615 | 70 | 214 | 3.5 | 5.2 | 0.00 | 0.00 | 0.00 | 70 | |
| 20260507114417 | 70 | 209 | 4.3 | 6.1 | 0.00 | 0.00 | 0.00 | 66 | |
| 20260507113223 | 71 | 186 | 4.3 | 6.1 | 0.00 | 0.00 | 0.00 | 66 | |
| 20260507112027 | 70 | 225 | 5.2 | 8.7 | 0.00 | 0.00 | 0.00 | 65 | |
| 20260507110853 | 70 | 215 | 3.5 | 5.2 | 0.00 | 0.00 | 0.00 | 66 | |
| 20260507105627 | 70 | 178 | 5.2 | 6.1 | 0.00 | 0.00 | 0.00 | 67 | |
| 20260507104433 | 69 | 206 | 4.3 | 7.8 | 0.00 | 0.00 | 0.00 | 67 | |
| 20260507103220 | 69 | 193 | 4.3 | 7.8 | 0.00 | 0.00 | 0.00 | 69 | |
| 20260507102017 | 69 | 212 | 3.5 | 5.2 | 0.00 | 0.00 | 0.00 | 70 | |
| 20260507100832 | 68 | 198 | 5.2 | 7.8 | 0.00 | 0.00 | 0.00 | 71 | |
| 20260507095629 | 67 | 214 | 4.3 | 7.8 | 0.00 | 0.00 | 0.00 | 73 | |
| 20260507094432 | 67 | 186 | 3.5 | 6.1 | 0.00 | 0.00 | 0.00 | 73 | |
| 20260507093216 | 66 | 215 | 5.2 | 8.7 | 0.00 | 0.00 | 0.00 | 73 | |
| 20260507092039 | 67 | 216 | 4.3 | 5.2 | 0.00 | 0.00 | 0.00 | 75 | |
| 20260507090825 | 65 | 192 | 5.2 | 6.1 | 0.00 | 0.00 | 0.00 | 76 | |
| 20260507085631 | 65 | 170 | 5.2 | 7.8 | 0.00 | 0.00 | 0.00 | 77 | |
| 20260507084433 | 65 | 210 | 6.1 | 7.8 | 0.00 | 0.00 | 0.00 | 77 | |
| 20260507083215 | 64 | 202 | 5.2 | 9.6 | 0.00 | 0.00 | 0.00 | 78 | |
| 20260507082021 | 65 | 183 | 7.0 | 7.8 | 0.00 | 0.00 | 0.00 | 78 | |
| 20260507080822 | 66 | 229 | 6.1 | 11.3 | 0.00 | 0.00 | 0.00 | 78 | |
| 20260507075619 | 67 | 209 | 4.3 | 5.2 | 0.00 | 0.00 | 0.00 | 79 | |
| 20260507074425 | 65 | 215 | 4.3 | 6.1 | 0.00 | 0.00 | 0.00 | 82 | |
| 20260507073237 | 64 | 172 | 3.5 | 5.2 | 0.00 | 0.00 | 0.00 | 84 | |
| 20260507072023 | 63 | 183 | 3.5 | 5.2 | 0.00 | 0.00 | 0.00 | 86 | |
| 20260507070817 | 63 | 197 | 4.3 | 6.1 | 0.00 | 0.00 | 0.00 | 87 | |
| 20260507065621 | 62 | 168 | 3.5 | 5.2 | 0.00 | 0.00 | 0.00 | 88 | |
| 20260507064432 | 62 | 206 | 3.5 | 5.2 | 0.00 | 0.00 | 0.00 | 89 | |
| 20260507063232 | 61 | 182 | 4.3 | 7.0 | 0.00 | 0.00 | 0.00 | 90 | |
| 20260507062025 | 61 | 188 | 4.3 | 5.2 | 0.00 | 0.00 | 0.00 | 90 | |
| 20260507060817 | 61 | 198 | 4.3 | 5.2 | 0.00 | 0.00 | 0.00 | 91 | |
| 20260507055623 | 60 | 171 | 3.5 | 7.0 | 0.00 | 0.00 | 0.00 | 91 | |
| 20260507054415 | 60 | 174 | 3.5 | 5.2 | 0.00 | 0.00 | 0.00 | 91 | |
| 20260507053312 | 59 | 167 | 3.5 | 5.2 | 0.00 | 0.00 | 0.00 | 91 | |
| 20260507052024 | 59 | 145 | 2.6 | 7.0 | 0.00 | 0.00 | 0.00 | 91 | |
| 20260507050832 | 59 | 171 | 1.7 | 2.6 | 0.00 | 0.00 | 0.00 | 91 | |
| 20260507045645 | 59 | 210 | 1.7 | 3.5 | 0.00 | 0.00 | 0.00 | 91 | |
| 20260507044438 | 59 | 170 | 2.6 | 5.2 | 0.00 | 0.00 | 0.00 | 91 | |
| 20260507043223 | 59 | 144 | 4.3 | 7.8 | 0.00 | 0.00 | 0.00 | 92 | |
| 20260507042045 | 59 | 162 | 3.5 | 7.0 | 0.00 | 0.00 | 0.00 | 92 | |
| 20260507040821 | 59 | 182 | 3.5 | 7.8 | 0.00 | 0.00 | 0.00 | 92 | |
| 20260507035631 | 59 | 173 | 3.5 | 5.2 | 0.00 | 0.00 | 0.00 | 92 | |
| 20260507034432 | 59 | 177 | 2.6 | 5.2 | 0.00 | 0.00 | 0.00 | 92 | |
| 20260507033225 | 59 | 151 | 2.6 | 3.5 | 0.00 | 0.00 | 0.00 | 92 | |
| 20260507032024 | 59 | 150 | 1.7 | 2.6 | 0.00 | 0.00 | 0.00 | 92 | |
| 20260507030831 | 59 | 145 | 1.7 | 4.3 | 0.00 | 0.00 | 0.00 | 92 | |
| 20260507025615 | 59 | 181 | 2.6 | 3.5 | 0.00 | 0.00 | 0.00 | 92 | |
| 20260507024451 | 59 | 196 | 1.7 | 2.6 | 0.00 | 0.00 | 0.00 | 92 | |
| 20260507023227 | 59 | 178 | 2.6 | 3.5 | 0.00 | 0.00 | 0.00 | 92 | |
| 20260507022040 | 59 | 185 | 2.6 | 3.5 | 0.00 | 0.00 | 0.00 | 92 | |
| 20260507020826 | 59 | 187 | 1.7 | 2.6 | 0.00 | 0.00 | 0.00 | 91 | |
| 20260507015617 | 60 | 197 | 3.5 | 6.1 | 0.00 | 0.00 | 0.00 | 92 | |
| 20260507014451 | 60 | 225 | 2.6 | 3.5 | 0.00 | 0.00 | 0.00 | 91 | |
| 20260507013309 | 60 | 168 | 2.6 | 5.2 | 0.00 | 0.00 | 0.00 | 91 | |
| 20260507012015 | 60 | 180 | 4.3 | 7.0 | 0.00 | 0.00 | 0.00 | 91 | |
| 20260507010831 | 59 | 200 | 3.5 | 5.2 | 0.00 | 0.00 | 0.00 | 91 | |
| 20260507005631 | 59 | 215 | 2.6 | 4.3 | 0.00 | 0.00 | 0.00 | 91 | |
| 20260507004445 | 59 | 205 | 3.5 | 5.2 | 0.00 | 0.00 | 0.00 | 90 | |
| 20260507003217 | 60 | 215 | 3.5 | 4.3 | 0.00 | 0.00 | 0.00 | 90 | |
| 20260507002024 | 60 | 217 | 2.6 | 3.5 | 0.00 | 0.00 | 0.00 | 90 | |
| 20260507000815 | 60 | 205 | 2.6 | 3.5 | 0.00 | 0.00 | 0.00 | 90 | |
| 20260506235621 | 60 | 184 | 3.5 | 7.8 | 0.00 | 0.00 | 0.00 | 90 | |
| 20260506234427 | 60 | 163 | 3.5 | 5.2 | 0.00 | 0.00 | 0.00 | 90 | |
| 20260506233219 | 60 | 159 | 4.3 | 8.7 | 0.00 | 0.00 | 0.00 | 90 | |
| 20260506232024 | 60 | 178 | 4.3 | 6.1 | 0.00 | 0.00 | 0.00 | 90 | |
| 20260506230837 | 60 | 171 | 3.5 | 5.2 | 0.00 | 0.00 | 0.00 | 90 | |
| 20260506225617 | 60 | 205 | 3.5 | 5.2 | 0.00 | 0.00 | 0.00 | 89 |